This demonstration page uses our WeatherBlox Daily Observations layout. Learn more.

Left ArrowRight Arrow

40.92945, -100.16068

Hourly Observations for September 6, 2019

Temp ( °F °C ) Dew Point ( °F °C ) Humidity (%) Winds ( mph kmh ) Pressure ( in mb ) Visibility ( mi km ) Precip ( " mm )
12:15 am 00:15 Clear 72 22.1 70 21.1 94 94 NNE 8 13 30.00 1016 10 16 0.00 0.00
12:35 am 00:35 Clear 71 21.8 70 21 95 95 NNE 13 20 30.01 1016 10 16 0.00 0.00
12:55 am 00:55 Clear 71 21.6 69 20.8 95 95 NNE 10 17 30.01 1016 10 16 0.00 0.00
1:15 am 01:15 Clear 71 21.5 68 20.1 92 92 NNE 10 17 30.01 1016 10 16 0.00 0.00
1:35 am 01:35 Clear 70 21.2 67 19.2 88 88 NNE 9 15 30.02 1017 10 16 0.00 0.00
1:55 am 01:55 Clear 69 20.8 65 18.5 87 87 NNE 9 15 30.03 1017 10 16 0.00 0.00
2:15 am 02:15 Clear 68 20.1 65 18.1 88 88 NNE 8 13 30.05 1018 10 16 0.00 0.00
2:35 am 02:35 Clear 68 19.8 64 17.7 88 88 NNE 9 15 30.05 1018 10 16 0.00 0.00
2:55 am 02:55 Clear 67 19.4 63 17.1 87 87 NNE 9 15 30.06 1018 10 16 0.00 0.00
3:15 am 03:15 Clear 66 18.7 62 16.5 87 87 NNE 7 11 30.06 1018 10 16 0.00 0.00
3:30 am 03:30 Clear 65 18.5 61 16.3 87 87 NNE 8 13 30.06 1018 10 16 0.00 0.00
3:55 am 03:55 Clear 64 17.8 61 16 89 89 NE 7 11 30.07 1018 10 16 0.00 0.00
4:15 am 04:15 Clear 64 17.5 60 15.7 89 89 NE 6 9 30.07 1018 10 16 0.00 0.00
4:35 am 04:35 Clear 63 17.1 60 15.3 89 89 NE 5 7 30.09 1019 10 16 0.00 0.00
4:55 am 04:55 Clear 62 16.8 59 15.1 90 90 Calm 30.10 1019 10 16 0.00 0.00
5:15 am 05:15 Clear 61 16.2 59 15 93 93 NE 5 7 30.10 1019 10 16 0.00 0.00
5:35 am 05:35 Clear 61 16.1 58 14.7 91 91 NE 3 6 30.11 1019 10 16 0.00 0.00
5:55 am 05:55 Clear 62 16.5 59 14.9 90 90 NNE 6 9 30.11 1020 10 16 0.00 0.00
6:15 am 06:15 Clear 62 16.5 59 14.8 90 90 NE 5 7 30.11 1020 10 16 0.00 0.00
6:35 am 06:35 Clear 62 16.4 58 14.7 90 90 N 3 6 30.13 1020 10 16 0.00 0.00
6:55 am 06:55 Clear 61 16 58 14.6 91 91 NNW 3 6 30.15 1021 10 16 0.00 0.00
7:15 am 07:15 Sunny 60 15.6 58 14.3 92 92 NNE 5 7 30.15 1021 10 16 0.00 0.00
7:35 am 07:35 Sunny 60 15.5 57 13.7 89 89 NNW 5 7 30.16 1021 10 16 0.00 0.00
7:55 am 07:55 Sunny 59 14.9 57 13.7 93 93 NW 3 6 30.18 1022 10 16 0.00 0.00
8:15 am 08:15 Sunny 60 15.8 58 14.5 92 92 NNW 3 6 30.18 1022 10 16 0.00 0.00
8:35 am 08:35 Sunny 62 16.9 58 14.4 85 85 N 3 6 30.17 1022 10 16 0.00 0.00
8:55 am 08:55 Sunny 64 17.7 58 14.5 82 82 N 5 7 30.17 1022 10 16 0.00 0.00
9:15 am 09:15 Sunny 67 19.3 58 14.4 73 73 NNE 8 13 30.16 1021 10 16 0.00 0.00
9:35 am 09:35 Sunny 67 19.4 58 14.3 73 73 NE 7 11 30.16 1021 10 16 0.00 0.00
9:55 am 09:55 Sunny 68 20 57 14 69 69 NE 6 9 30.15 1021 10 16 0.00 0.00
10:15 am 10:15 Sunny 69 20.7 57 13.9 65 65 NE 8 13 30.15 1021 10 16 0.00 0.00
10:35 am 10:35 Sunny 70 21.2 57 13.8 63 63 ENE 7 11 30.14 1021 10 16 0.00 0.00
10:55 am 10:55 Sunny 72 22.3 58 14.2 60 60 NE 9 15 30.13 1020 10 16 0.00 0.00
11:15 am 11:15 Sunny 74 23.4 56 13.6 54 54 ENE 9 15 30.13 1020 10 16 0.00 0.00
11:35 am 11:35 Sunny 74 23.3 57 13.8 55 55 NNE 6 9 30.14 1021 10 16 0.00 0.00
11:55 am 11:55 Sunny 73 22.6 57 13.9 58 58 NE 7 11 30.15 1021 10 16 0.00 0.00
12:15 pm 12:15 Sunny 72 22.4 58 14.3 60 60 NE 8 13 30.14 1021 10 16 0.00 0.00
12:35 pm 12:35 Sunny 73 22.6 58 14.3 60 60 E 13 20 30.11 1020 10 16 0.00 0.00
12:55 pm 12:55 Sunny 72 22.4 58 14.6 61 61 E 14 22 30.09 1019 10 16 0.00 0.00
1:15 pm 13:15 Sunny 72 22 58 14.4 62 62 ESE 14 22 30.07 1018 10 16 0.00 0.00
1:35 pm 13:35 Sunny 73 22.7 59 15 62 62 E 9 15 30.10 1019 10 16 0.00 0.00
1:55 pm 13:55 Sunny 73 22.7 59 15.2 63 63 NE 5 7 30.11 1020 10 16 0.00 0.00
2:15 pm 14:15 Sunny 73 22.5 59 15.1 63 63 NE 7 11 30.12 1020 10 16 0.00 0.00
2:35 pm 14:35 Sunny 73 22.9 59 14.9 61 61 NNE 6 9 30.12 1020 10 16 0.00 0.00
2:55 pm 14:55 Sunny 74 23.5 58 14.6 57 57 NE 7 11 30.10 1019 10 16 0.00 0.00
3:15 pm 15:15 Sunny 73 22.8 57 14.1 58 58 E 3 6 30.11 1020 10 16 0.00 0.00
3:35 pm 15:35 Sunny 75 23.9 57 14.1 54 54 NNE 6 9 30.10 1019 10 16 0.00 0.00
3:55 pm 15:55 Sunny 76 24.7 57 13.8 51 51 NNE 3 6 30.09 1019 10 16 0.00 0.00
4:15 pm 16:15 Sunny 76 24.2 58 14.3 54 54 ENE 7 11 30.08 1018 10 16 0.00 0.00
4:35 pm 16:35 Sunny 76 24.2 59 14.9 56 56 E 5 7 30.08 1018 10 16 0.00 0.00
4:55 pm 16:55 Sunny 75 24 60 15.6 59 59 E 9 15 30.06 1018 10 16 0.00 0.00
5:15 pm 17:15 Sunny 75 24 59 15 57 57 E 9 15 30.06 1018 10 16 0.00 0.00
5:35 pm 17:35 Sunny 74 23.4 59 15 59 59 E 8 13 30.05 1018 10 16 0.00 0.00
5:55 pm 17:55 Sunny 73 23 61 16 65 65 E 6 9 30.06 1018 10 16 0.00 0.00
6:15 pm 18:15 Sunny 73 22.8 60 15.6 64 64 E 9 15 30.05 1018 10 16 0.00 0.00
6:35 pm 18:35 Sunny 73 22.7 59 15.1 62 62 E 9 15 30.05 1018 10 16 0.00 0.00
6:55 pm 18:55 Sunny 73 22.7 59 14.8 61 61 E 8 13 30.04 1017 10 16 0.00 0.00
7:15 pm 19:15 Sunny 72 22.1 58 14.6 63 63 E 10 17 30.04 1017 10 16 0.00 0.00
7:35 pm 19:35 Sunny 70 21.3 58 14.7 66 66 E 7 11 30.04 1017 10 16 0.00 0.00
7:55 pm 19:55 Sunny 68 19.8 59 14.8 73 73 E 6 9 30.06 1018 10 16 0.00 0.00
8:15 pm 20:15 Clear 66 18.8 58 14.7 77 77 ESE 5 7 30.07 1018 10 16 0.00 0.00
8:35 pm 20:35 Clear 67 19.5 59 15.1 76 76 ESE 5 7 30.08 1018 10 16 0.00 0.00
8:55 pm 20:55 Clear 67 19.4 59 15.1 76 76 E 3 6 30.09 1019 10 16 0.00 0.00
9:15 pm 21:15 Clear 65 18.4 61 16 86 86 ENE 3 6 30.10 1019 10 16 0.00 0.00
9:35 pm 21:35 Clear 65 18.3 60 15.8 85 85 ENE 3 6 30.11 1020 10 16 0.00 0.00
9:55 pm 21:55 Clear 64 17.5 61 16.1 92 92 Calm 30.11 1020 10 16 0.00 0.00
10:15 pm 22:15 Clear 62 16.8 61 16 95 95 Calm 30.12 1020 10 16 0.00 0.00
10:35 pm 22:35 Clear 63 17.2 61 15.9 92 92 E 3 6 30.12 1020 10 16 0.00 0.00
10:55 pm 22:55 Clear 62 16.8 60 15.7 93 93 E 3 6 30.12 1020 10 16 0.00 0.00
11:15 pm 23:15 Clear 62 16.6 60 15.3 92 92 Calm 30.11 1020 10 16 0.00 0.00
11:30 pm 23:30 Clear 61 16.2 59 15.2 94 94 Calm 30.12 1020 10 16 0.00 0.00
11:55 pm 23:55 Clear 60 15.7 59 15 96 96 SE 3 6 30.12 1020 10 16 0.00 0.00

Powered by AerisWeather